When you browse on this site, cookies collect data to enhance your experience and personalize the content and advertising you see.
Visit our Privacy Policy to learn more. By continuing to use the site, you agree to this use of cookies and data.
  • Em Portugal
  • Lista de países
  • Para 7 dias
  • Temperatura da água
  • Mapas de satélite
  • Mapa do tempo
  • Widgets de tempo
  • user-avatar
    Iniciar Sessão

    Previsão horária em Neuquén

    Hoje, 27 Maio, Segunda-feira

    Tempo Temperatura Precipitação Vento Pressão Humidade
    00:00 +12°C° 0.1 mm 2 m/s 733 mmHg 54%
    01:00 +12°C° 0.1 mm 1 m/s 732 mmHg 55%
    02:00 +11°C° 0.1 mm 1 m/s 732 mmHg 58%
    03:00 +11°C° 0.1 mm 1 m/s 732 mmHg 60%
    04:00 +11°C° 0.1 mm 1 m/s 732 mmHg 62%
    05:00 +10°C° 0 mm 1 m/s 731 mmHg 63%
    06:00 +10°C° 0 mm 1 m/s 731 mmHg 65%
    07:00 +10°C° 0 mm 1 m/s 731 mmHg 66%
    08:00 +10°C° 0 mm 2 m/s 732 mmHg 60%
    09:00 +13°C° 0 mm 2 m/s 732 mmHg 54%
    10:00 +14°C° 0 mm 3 m/s 732 mmHg 48%
    11:00 +14°C° 0 mm 4 m/s 731 mmHg 45%
    12:00 +15°C° 0 mm 4 m/s 731 mmHg 42%
    13:00 +16°C° 0 mm 5 m/s 731 mmHg 40%
    14:00 +16°C° 0 mm 5 m/s 731 mmHg 38%
    15:00 +16°C° 0 mm 5 m/s 731 mmHg 36%
    16:00 +16°C° 0 mm 5 m/s 731 mmHg 34%
    17:00 +15°C° 0 mm 5 m/s 731 mmHg 36%
    18:00 +14°C° 0 mm 5 m/s 732 mmHg 38%
    19:00 +13°C° 0 mm 5 m/s 732 mmHg 40%
    20:00 +12°C° 0 mm 5 m/s 732 mmHg 42%
    21:00 +11°C° 0 mm 6 m/s 733 mmHg 43%
    22:00 +10°C° 0 mm 6 m/s 733 mmHg 45%
    23:00 +10°C° 0 mm 6 m/s 733 mmHg 46%

    Amanhã, 28 Maio, Terça-feira

    Tempo Temperatura Precipitação Vento Pressão Humidade
    00:00 +10°C° 0 mm 5 m/s 733 mmHg 48%
    01:00 +9°C° 0 mm 5 m/s 733 mmHg 49%
    02:00 +10°C° 0 mm 4 m/s 733 mmHg 51%
    03:00 +8°C° 0 mm 4 m/s 733 mmHg 52%
    04:00 +9°C° 0 mm 3 m/s 733 mmHg 54%
    05:00 +9°C° 0 mm 3 m/s 734 mmHg 54%
    06:00 +8°C° 0 mm 4 m/s 734 mmHg 54%
    07:00 +7°C° 0 mm 4 m/s 735 mmHg 55%
    08:00 +9°C° 0 mm 5 m/s 735 mmHg 49%
    09:00 +10°C° 0 mm 7 m/s 735 mmHg 43%
    10:00 +12°C° 0 mm 8 m/s 736 mmHg 37%
    11:00 +12°C° 0 mm 8 m/s 735 mmHg 36%
    12:00 +14°C° 0 mm 7 m/s 735 mmHg 34%
    13:00 +14°C° 0 mm 7 m/s 735 mmHg 32%
    14:00 +14°C° 0 mm 6 m/s 735 mmHg 32%
    15:00 +13°C° 0 mm 5 m/s 735 mmHg 33%
    16:00 +13°C° 0 mm 4 m/s 735 mmHg 34%
    17:00 +12°C° 0 mm 3 m/s 735 mmHg 36%
    18:00 +12°C° 0 mm 2 m/s 736 mmHg 38%
    19:00 +10°C° 0 mm 2 m/s 736 mmHg 40%
    20:00 +10°C° 0 mm 2 m/s 736 mmHg 40%
    21:00 +10°C° 0 mm 3 m/s 736 mmHg 40%
    22:00 +8°C° 0 mm 4 m/s 736 mmHg 41%
    23:00 +9°C° 0 mm 3 m/s 736 mmHg 42%

    Depois de amanhã, 29 Maio, Quarta-feira

    Tempo Temperatura Precipitação Vento Pressão Humidade
    00:00 +9°C° 0 mm 3 m/s 736 mmHg 43%
    01:00 +8°C° 0 mm 3 m/s 736 mmHg 44%
    02:00 +7°C° 0 mm 4 m/s 736 mmHg 46%
    03:00 +7°C° 0 mm 5 m/s 736 mmHg 48%
    04:00 +7°C° 0 mm 6 m/s 735 mmHg 51%
    05:00 +7°C° 0.1 mm 6 m/s 735 mmHg 54%
    06:00 +7°C° 0.1 mm 6 m/s 735 mmHg 58%
    07:00 +7°C° 0.1 mm 6 m/s 736 mmHg 61%
    08:00 +5°C° 1 mm 6 m/s 736 mmHg 64%
    09:00 +5°C° 1 mm 6 m/s 736 mmHg 68%
    10:00 +5°C° 1 mm 7 m/s 736 mmHg 71%
    11:00 +5°C° 1.1 mm 7 m/s 735 mmHg 72%
    12:00 +4°C° 1.1 mm 7 m/s 735 mmHg 73%
    13:00 +4°C° 1.1 mm 8 m/s 734 mmHg 74%
    14:00 +4°C° 0.9 mm 8 m/s 735 mmHg 73%
    15:00 +4°C° 0.9 mm 8 m/s 735 mmHg 73%
    16:00 +4°C° 0.9 mm 8 m/s 735 mmHg 72%
    17:00 +4°C° 0.7 mm 8 m/s 735 mmHg 73%
    18:00 +4°C° 0.7 mm 8 m/s 735 mmHg 74%
    19:00 +4°C° 0.7 mm 8 m/s 736 mmHg 75%
    20:00 +4°C° 0.8 mm 8 m/s 736 mmHg 76%
    21:00 +4°C° 0.8 mm 8 m/s 737 mmHg 77%
    22:00 +4°C° 0.8 mm 8 m/s 737 mmHg 77%
    23:00 +4°C° 0.4 mm 8 m/s 737 mmHg 77%

    30 Maio, Quinta-feira

    Tempo Temperatura Precipitação Vento Pressão Humidade
    00:00 +4°C° 0.4 mm 8 m/s 737 mmHg 78%
    01:00 +4°C° 0.4 mm 7 m/s 737 mmHg 78%
    02:00 +4°C° 0.1 mm 7 m/s 737 mmHg 79%
    03:00 +3°C° 0.1 mm 7 m/s 737 mmHg 80%
    04:00 +3°C° 0.1 mm 7 m/s 737 mmHg 81%
    05:00 +3°C° 0.3 mm 7 m/s 737 mmHg 82%
    06:00 +3°C° 0.3 mm 7 m/s 737 mmHg 82%
    07:00 +3°C° 0.3 mm 6 m/s 737 mmHg 82%
    08:00 +4°C° 0.5 mm 7 m/s 737 mmHg 81%
    09:00 +4°C° 0.5 mm 7 m/s 737 mmHg 81%
    10:00 +4°C° 0.5 mm 7 m/s 737 mmHg 80%
    11:00 +5°C° 0.2 mm 7 m/s 737 mmHg 80%
    12:00 +5°C° 0.2 mm 7 m/s 736 mmHg 80%
    13:00 +5°C° 0.2 mm 6 m/s 736 mmHg 81%
    14:00 +5°C° 0.1 mm 6 m/s 735 mmHg 81%
    15:00 +5°C° 0.1 mm 6 m/s 735 mmHg 81%
    16:00 +6°C° 0.1 mm 5 m/s 735 mmHg 81%
    17:00 +6°C° 0.1 mm 5 m/s 735 mmHg 82%
    18:00 +6°C° 0.1 mm 5 m/s 735 mmHg 83%
    19:00 +6°C° 0.1 mm 5 m/s 735 mmHg 84%
    20:00 +6°C° 0.1 mm 4 m/s 735 mmHg 85%
    21:00 +6°C° 0.1 mm 4 m/s 735 mmHg 86%
    22:00 +7°C° 0.1 mm 3 m/s 734 mmHg 87%
    23:00 +7°C° 0 mm 3 m/s 734 mmHg 87%

    31 Maio, Sexta-feira

    Tempo Temperatura Precipitação Vento Pressão Humidade
    00:00 +7°C° 0 mm 3 m/s 734 mmHg 87%
    01:00 +7°C° 0 mm 3 m/s 734 mmHg 87%
    02:00 +7°C° 0 mm 3 m/s 733 mmHg 89%
    03:00 +7°C° 0 mm 2 m/s 733 mmHg 90%
    04:00 +7°C° 0 mm 2 m/s 733 mmHg 91%
    05:00 +6°C° 0 mm 2 m/s 733 mmHg 92%
    06:00 +6°C° 0 mm 2 m/s 733 mmHg 93%
    07:00 +6°C° 0 mm 2 m/s 733 mmHg 94%
    08:00 +7°C° 0 mm 2 m/s 733 mmHg 89%
    09:00 +8°C° 0 mm 2 m/s 733 mmHg 85%
    10:00 +9°C° 0 mm 2 m/s 732 mmHg 81%
    11:00 +10°C° 0 mm 3 m/s 732 mmHg 77%
    12:00 +10°C° 0 mm 3 m/s 731 mmHg 72%
    13:00 +11°C° 0 mm 4 m/s 730 mmHg 68%
    14:00 +11°C° 0 mm 3 m/s 730 mmHg 69%
    15:00 +11°C° 0 mm 3 m/s 730 mmHg 71%
    16:00 +12°C° 0 mm 2 m/s 730 mmHg 72%
    17:00 +12°C° 0 mm 2 m/s 730 mmHg 74%
    18:00 +10°C° 0 mm 2 m/s 730 mmHg 77%
    19:00 +10°C° 0 mm 2 m/s 730 mmHg 80%
    20:00 +9°C° 0 mm 2 m/s 730 mmHg 81%
    21:00 +9°C° 0 mm 3 m/s 730 mmHg 83%
    22:00 +9°C° 0 mm 3 m/s 730 mmHg 85%
    23:00 +8°C° 0 mm 2 m/s 729 mmHg 87%

    1 Junho, Sábado

    Tempo Temperatura Precipitação Vento Pressão Humidade
    00:00 +8°C° 0 mm 2 m/s 729 mmHg 88%
    01:00 +7°C° 0 mm 2 m/s 729 mmHg 90%
    02:00 +8°C° 0.1 mm 2 m/s 729 mmHg 86%
    03:00 +8°C° 0.1 mm 3 m/s 729 mmHg 82%
    04:00 +9°C° 0.1 mm 3 m/s 729 mmHg 77%
    05:00 +8°C° 0.3 mm 4 m/s 729 mmHg 76%
    06:00 +8°C° 0.3 mm 5 m/s 730 mmHg 74%
    07:00 +8°C° 0.3 mm 5 m/s 730 mmHg 73%
    08:00 +9°C° 0 mm 8 m/s 731 mmHg 63%
    09:00 +9°C° 0 mm 10 m/s 731 mmHg 53%
    10:00 +10°C° 0 mm 12 m/s 731 mmHg 43%
    11:00 +12°C° 0 mm 13 m/s 732 mmHg 41%
    12:00 +13°C° 0 mm 13 m/s 732 mmHg 38%
    13:00 +13°C° 0 mm 13 m/s 732 mmHg 36%
    14:00 +13°C° 0 mm 12 m/s 733 mmHg 38%
    15:00 +12°C° 0 mm 10 m/s 734 mmHg 40%
    16:00 +12°C° 0 mm 9 m/s 734 mmHg 42%
    17:00 +11°C° 0 mm 8 m/s 735 mmHg 45%
    18:00 +10°C° 0 mm 8 m/s 736 mmHg 48%
    19:00 +10°C° 0 mm 7 m/s 737 mmHg 51%
    20:00 +10°C° 0.1 mm 7 m/s 737 mmHg 53%
    21:00 +9°C° 0.1 mm 7 m/s 738 mmHg 55%
    22:00 +9°C° 0.1 mm 7 m/s 738 mmHg 57%
    23:00 +9°C° 0 mm 7 m/s 738 mmHg 58%
    Mostrar mais